Home > Weather > Paradise > Past weeks

Flag for Canada Weather for the Past 2 Weeks in Paradise, Newfoundland and Labrador, Canada

Now
18 °F

Partly sunny.


Feels Like: 3 °F
Forecast: 13 / 31 °F
Wind: 16 mph from West

Location: St. John's

Current Time: Feb 14, 2016 at 10:19:46 AM

Latest Report: Feb 14, 2016 at 9:30 AM


Visibility: 15 mi

Pressure: 29.61 "Hg

Humidity: 79%

Dew point: 12 °F

Location of ParadiseLocation

Historic Weather in Paradise — Graph

°F

Paradise Temperature Yesterday

Maximum temperature yesterday: 30 °F (at 8:30 PM)
Minimum temperature yesterday: 16 °F (at 5:30 AM)
Average temperature yesterday: 23 °F

High & Low Weather Summary for the Past Weeks

 TemperatureHumidityPressure
High55 °F (Feb 6, 5:30 AM)100% (Jan 31, 11:30 PM)30.39 "Hg (Jan 31, 11:30 PM)
Low16 °F (Feb 3, 5:30 AM)54% (Feb 3, 2:30 PM)28.78 "Hg (Jan 30, 8:30 AM)
Average29 °F84%29.78 "Hg
* Reported Jan 30 8:30 AM — Feb 14 8:30 AM, Paradise, Weather by CustomWeather, © 2016

Note: Actual official high and low records may vary slightly from our data, if they occured in-between our weather recording intervals... More about our weather records

Advertising

Paradise Weather History for the Previous 24 Hours

 ConditionsComfort  
Time TempWeatherWind HumidityBarometerVisibility
8:30 AM
Sun, Feb 14
18 °FPartly sunny.17 mph79%29.56 "Hg15 mi
7:30 AM18 °FOvercast.18 mph86%29.51 "Hg15 mi
6:30 AM19 °FLight snow. Overcast.18 mph93%29.43 "Hg15 mi
5:30 AM25 °FLight snow. Low clouds.12 mph93%29.35 "Hg10 mi
4:30 AM25 °FLight snow. Overcast.12 mph93%29.30 "Hg10 mi
4:19 AM25 °FLight snow. Overcast.10 mph93%29.29 "Hg3 mi
3:30 AM25 °FLow clouds.7 mph93%29.25 "Hg15 mi
2:30 AM25 °FLow clouds.5 mph93%29.26 "Hg15 mi
1:30 AM25 °FLow clouds.13 mph93%29.25 "Hg15 mi
12:30 AM27 °FLight snow. Low clouds.10 mph93%29.25 "Hg15 mi
11:30 PM
Sat, Feb 13
27 °FLight snow. Low clouds.9 mph100%29.23 "Hg15 mi
10:30 PM28 °FLight freezing rain. Ice fog.10 mph93%29.19 "Hg6 mi
9:30 PM28 °FLight freezing rain. Ice fog.14 mph100%29.20 "Hg3 mi
9:17 PM28 °FLight freezing rain. Ice fog.12 mph100%29.19 "Hg3 mi
8:30 PM30 °FLight freezing rain. Ice fog.17 mph93%29.21 "Hg1 mi
7:30 PM28 °FSnow. Ice fog.23 mph93%29.30 "Hg1 mi
6:30 PM27 °FSnow. Ice fog.28 mph93%29.40 "Hg1 mi
5:30 PM27 °FHeavy snow. Ice fog.29 mph93%29.49 "Hg0 mi
4:30 PM25 °FHeavy snow. Ice fog.22 mph100%29.65 "Hg0 mi
3:30 PM25 °FHeavy snow. Ice fog.17 mph86%29.71 "Hg0 mi
2:30 PM23 °FLight snow. Overcast.12 mph86%29.78 "Hg1 mi
2:15 PM23 °FLight snow. Overcast.12 mph86%29.79 "Hg1 mi
1:30 PM23 °FLight snow. Overcast.9 mph80%29.85 "Hg10 mi
1:15 PM23 °FLight snow. Overcast.8 mph74%29.88 "Hg15 mi
12:30 PM23 °FMostly cloudy.9 mph74%29.92 "Hg15 mi
11:30 AM23 °FMore clouds than sun.8 mph74%30.00 "Hg15 mi
10:30 AM23 °FOvercast.6 mph74%30.02 "Hg15 mi
Weather by CustomWeather, © 2016

See weather overviewHow to use our weather pages